OPS 4682 DEB, 55121

Orbit data source: Space-Track

OPS 4682 DEB, 55121 is space debris in LEO originally from a launch on Sat, 03 Apr 1965 UTC launched from the Air Force Western Test Range (AFWTR). Debris objects in space refer to the collection of defunct objects orbiting the Earth. Examples of debris include non-operational satellites, rocket bodies, and fragments generated from explosions, collisions, or faulty payload assembly.

Loading next visibility...
Identifier
55121, 1965-027HL
Orbit
LEO
Country
Flag of USUS
Related business
Manufacturer
Unknown
Mission
Spacecraft
Bus & Motor
Unknown
Mass
Unknown
Launch date (UTC)
1965-04-03 (61 years ago)
Launch vehicle
Unknown
Launch site
Air Force Western Test Range (AFWTR)
Object type
Payload
Rocket body
Debris
Shape & HBR
Unknown
Radar Cross Section
Medium (>0.1 m² and <1 m²)

Expand to show TLE details & history
Last TLE update: 12 hours ago

TLE from 12 hours ago
0 OPS 4682 DEB
1 55121U 65027HL  26208.43088778  .00001117  00000-0  36084-2 0  9990
2 55121  90.2415   7.5456 0036082 214.9152 144.9604 13.01327659458852
Epoch: 2026-07-27T10:20Z
TLE epoch observation values (Epoch: 2026-07-27T10:20:28.704Z)
Latitude
-0.00001°
Longitude
-92.68857°
Altitude
1,282.367 km
Speed
7.204 km/s
True Right ascension
00h 30m 10s
True Declination
0° 00' 00"
Sunlit
Object was in daylight at epoch
Visualization orbit readout
Latitude
Unknown
Longitude
Unknown
Altitude
Unknown
Speed
Unknown
Apparent Right ascension
Unknown
Apparent Declination
Unknown
Sunlit
N/A
Visualization observer readout
Local Sidereal Time
12:11:15
Azimuth
Unknown
Elevation
Unknown
Doppler factor
Unknown
Orbital elements
Apogee altitude
1,281.553 km
Perigee altitude
1,226.476 km
Semi-major axis
7,632.151 km
Eccentricity
0.00361
Inclination
90.2415°
RAAN
7.5456°
Arg. of periapsis
214.9152°
True anomaly
145.19692°
Mean anomaly
144.9604°
Eccentric anomaly
145.07875°
Mean motion
3.25516 °/min
Orbital period
110.59 mins
BSTAR
0.0036084
Loading maneuver chart data...
Computing Atmospheric mass density...
Loading historical data...
Loading historical data...
Loading historical data...
Loading historical data...
Loading historical data...
Loading historical data...
Loading historical data...

Documentation

Showing up to 5 results
|